Flag for U.S.A. Weather past 2 weeks in Lubbock, Texas, U.S.A.

Now
53 °F

Clear.


Feels Like: 48 °F
Forecast: 52 / 79 °F
Wind: 17 mph from West

Location: Lubbock International Airport

Current Time: Apr 25, 2015 at 7:40:19 AM

Latest Report: Apr 25, 2015 at 6:53 AM


Visibility: 10 mi

Pressure: 29.71 "Hg

Humidity: 48%

Dew point: 34 °F

Location of LubbockLocation

Historic Weather in Lubbock — Graph

°F

Lubbock temperature yesterday

Maximum temperature yesterday: 80 °F (at 3:53 PM)
Minimum temperature yesterday: 59 °F (at 11:53 PM)
Average temperature yesterday: 68 °F

Past Weeks' High & Low Weather Summary

 TemperatureHumidityPressure
High81 °F (Apr 12, 3:53 PM)100% (Apr 18, 5:53 AM)30.19 "Hg (Apr 18, 5:53 AM)
Low39 °F (Apr 20, 5:53 AM)11% (Apr 18, 3:53 PM)29.55 "Hg (Apr 24, 3:53 PM)
Average61 °F59%29.84 "Hg
* Reported Apr 10 5:53 AM — Apr 25 5:53 AM, Lubbock, Weather by CustomWeather, © 2015

Note: Actual official high and low records may vary slightly from our data, if they occured in-between our weather recording intervals... More about our weather records

Advertising

Lubbock weather history for previous 24 hours

 ConditionsComfort  
Time TempWeatherWind HumidityBarometerVisibility
5:53 AM
Sat, Apr 25
51 °FClear.14 mph52%29.70 "Hg10 mi
4:53 AM52 °FClear.14 mph50%29.69 "Hg10 mi
3:53 AM51 °FClear.12 mph52%29.69 "Hg10 mi
2:53 AM52 °FClear.10 mph49%29.69 "Hg10 mi
1:53 AM51 °FClear.9 mph48%29.70 "Hg10 mi
12:53 AM55 °FClear.12 mph40%29.69 "Hg10 mi
11:53 PM
Fri, Apr 24
59 °FClear.12 mph33%29.69 "Hg10 mi
10:53 PM60 °FClear.15 mph31%29.66 "Hg10 mi
9:53 PM63 °FClear.12 mph26%29.63 "Hg10 mi
8:53 PM67 °FPassing clouds.18 mph20%29.62 "Hg10 mi
7:53 PM72 °FPassing clouds.28 mph20%29.59 "Hg10 mi
6:53 PM73 °FPassing clouds.31 mph20%29.71 "Hg10 mi
5:53 PM76 °FPassing clouds.31 mph18%29.56 "Hg10 mi
4:53 PM78 °FPassing clouds.35 mph14%29.56 "Hg9 mi
3:53 PM80 °FPassing clouds.33 mph16%29.55 "Hg9 mi
2:53 PM78 °FBroken clouds.29 mph19%29.59 "Hg10 mi
1:53 PM76 °FBroken clouds.28 mph30%29.62 "Hg10 mi
12:53 PM71 °FBroken clouds.25 mph42%29.66 "Hg10 mi
11:53 AM63 °FThunderstorms. Mostly cloudy.22 mph75%29.70 "Hg8 mi
10:53 AM73 °FBroken clouds.30 mph48%29.68 "Hg10 mi
9:53 AM70 °FPartly sunny.22 mph49%29.69 "Hg10 mi
8:53 AM66 °FPartly sunny.18 mph59%29.70 "Hg10 mi
7:53 AM63 °FPartly cloudy.17 mph65%29.70 "Hg10 mi
Weather by CustomWeather, © 2015

See weather overviewHow to use our weather pages